[[[{"header":{"parameterUnit":"kt","parameterCategory":2,"dx":1,"dy":1,"la1":30.253999710083008,"la2":30.299108505249023,"lo1":-89.0895004272461,"lo2":-89.04439544677734,"nx":28,"ny":28,"refTime":"2022-10-12T21:00:00:Z","depth":0,"parameterNumber":1,"parameterNumberName":"U-component_of_WINDS"},"data":[3.0023,3.0084,3.0085,3.0155,3.0167,3.0216,3.0233,3.0256,3.0273,3.0332,3.0365,3.0372,3.0389,3.043,3.0466,3.0468,3.0483,3.0507,3.0505,3.04,3.0385,3.0371,3.0356,3.051,3.051,3.0613,3.0614,3.0615,2.9953,2.9966,3.0003,3.0038,3.007,3.0048,3.0074,3.0102,3.0146,3.0168,3.0199,3.025,3.029,3.0299,3.0337,3.0367,3.0358,3.0377,3.0375,3.0378,3.0266,3.025,3.0384,3.0384,3.0384,3.0384,3.0384,3.0384,2.9826,2.9862,2.9883,2.9922,2.9939,2.9963,2.9997,3.0002,3.0038,3.0076,3.0068,3.0116,3.0137,3.0181,3.0195,3.0234,3.0212,3.0232,3.0237,3.0242,3.0249,3.0104,3.024,3.024,3.0239,3.0239,3.0239,0,2.9732,2.973,2.9763,2.9797,2.9825,2.9851,2.9874,2.9895,2.9886,2.9915,2.9958,2.9982,3.003,3.0069,3.0103,3.0113,3.0091,3.0088,3.0102,3.0107,3.0109,3.0109,2.9928,3.0083,3.0082,3.0081,3.008,3.008,2.9604,2.9645,2.9664,2.9688,2.9699,2.9737,2.976,2.9748,2.9772,2.9799,2.9831,2.987,2.99,2.9968,2.9971,3.0006,2.9995,3.0055,3.0,3.0005,2.9997,2.9994,2.9999,3.0065,3.0067,3.0069,3.007,0,2.9533,2.9528,2.9591,2.9604,2.9608,2.9652,2.9663,2.9698,2.9698,2.9746,2.9756,2.9755,2.9796,2.9789,2.9833,2.9829,2.9904,2.9893,2.9898,2.9895,2.9949,2.9944,3.0121,3.0145,2.9985,2.9986,2.9987,0,2.9421,2.9474,2.9465,2.9501,2.9561,2.9545,2.9605,2.961,2.9625,2.9662,2.9635,2.9671,2.9656,2.9691,2.9684,2.9744,2.9752,2.9751,2.9748,2.9753,2.9753,2.9764,2.9756,2.9739,2.9738,2.9738,2.9737,0,2.9308,2.9364,2.9422,2.9434,2.9451,2.9479,2.9488,2.9503,2.9524,2.955,2.9563,2.9595,2.9612,2.9638,2.9627,2.959,2.97,2.9646,2.9699,2.97,2.9722,2.972,2.9881,2.9736,2.9736,2.9735,2.9735,0,2.9216,2.9241,2.9326,2.934,2.9354,2.9392,2.9422,2.9452,2.947,2.9467,2.9487,2.9466,2.9516,2.9465,2.9534,2.9489,2.9509,2.9512,2.9516,2.9518,2.946,2.9551,2.9705,2.9721,2.9524,2.9522,2.9521,0,2.9089,2.9171,2.9157,2.9237,2.9274,2.924,2.9283,2.9298,2.9297,2.9328,2.9328,2.9363,2.9322,2.9332,2.9368,2.9367,2.9426,2.9359,2.9406,2.9408,2.9403,2.9545,2.9569,2.9673,2.9498,2.9501,2.9502,0,2.8989,2.9005,2.902,2.9032,2.9048,2.9077,2.9126,2.9156,2.9178,2.9196,2.9237,2.9286,2.9257,2.9272,2.9257,2.9295,2.9386,2.9258,2.9258,2.9282,2.9485,2.9509,2.9526,2.9368,2.9371,2.9373,2.9484,0,2.8852,2.889,2.893,2.8954,2.8975,2.9023,2.9011,2.9036,2.9019,2.9015,2.9074,2.9081,2.911,2.9127,2.911,2.9197,2.9181,2.9149,2.9095,2.9189,2.9225,2.924,2.9043,2.9041,2.904,2.9039,0,0,2.8732,2.8785,2.8764,2.8808,2.8824,2.8785,2.8838,2.8849,2.8871,2.8884,2.8854,2.8923,2.8929,2.9,2.9028,2.904,2.9055,2.9021,2.9144,2.9156,2.9167,2.9206,2.9222,2.9036,2.9036,2.9035,2.9035,0,2.8678,2.8684,2.8735,2.8745,2.8759,2.8751,2.8764,2.877,2.877,2.8824,2.879,2.8823,2.8876,2.8887,2.89,2.9013,2.8984,2.9023,2.9088,2.9131,2.9145,2.9157,2.9198,2.9213,2.9032,2.9032,2.9032,0,2.8577,2.8581,2.8603,2.8635,2.8643,2.868,2.8622,2.8662,2.8689,2.8641,2.8695,2.8697,2.871,2.8778,2.8808,2.8781,2.8921,2.8873,2.8881,2.8884,2.8924,2.8941,2.8955,2.8762,2.8761,2.876,0,0,2.8532,2.8565,2.8563,2.8622,2.863,2.8618,2.8635,2.8618,2.863,2.8635,2.8635,2.8648,2.8679,2.8699,2.8727,2.8803,2.8805,2.884,2.8853,2.8864,2.8872,2.8915,2.8931,2.8757,2.8757,2.8757,0,0,2.8509,2.8509,2.8488,2.8555,2.8568,2.8569,2.8606,2.8581,2.8604,2.8596,2.857,2.8572,2.8635,2.8636,2.8594,2.8708,2.8655,2.8665,2.8703,2.8719,2.8732,2.8729,2.8533,0,0,0,0,0,2.8445,2.8509,2.8491,2.85,2.8538,2.8579,2.8584,2.8563,2.8528,2.8558,2.8554,2.8521,2.8609,2.857,2.858,2.8626,2.8714,2.8722,2.8729,2.8796,2.8813,2.8827,0,0,0,0,0,0,2.8449,2.8459,2.8489,2.8493,2.8501,2.8577,2.8512,2.8508,2.8524,2.8517,2.8523,2.8521,2.8504,2.8564,2.8573,2.8618,2.853,2.8717,2.8724,2.8729,2.8802,2.8816,2.8827,0,0,0,0,0,2.8451,2.846,2.8526,2.8491,2.8499,2.8487,2.8509,2.8505,2.8517,2.851,2.8507,2.85,2.8506,2.8512,2.8569,2.8614,2.8524,2.8527,2.8721,2.8726,2.8731,2.8809,0,0,0,0,0,0,2.8453,2.8457,2.8527,2.8528,2.8465,2.8482,2.8484,2.8503,2.8508,2.8506,2.8485,2.8479,2.8508,2.8512,2.8517,2.8614,2.8519,2.8522,2.8524,2.8725,2.8729,2.8733,0,0,0,0,0,0,2.8452,2.8458,2.8527,2.8495,2.8492,2.8478,2.848,2.8524,2.8509,2.8483,2.8479,2.8482,2.8501,2.8513,2.8516,2.8587,2.8515,2.8518,2.852,2.8522,2.8729,2.8732,0,0,0,0,0,0,2.8454,2.846,2.8494,2.8492,2.849,2.8505,2.8517,2.8557,2.8481,2.8484,2.8474,2.8471,2.8503,2.8505,2.8516,2.8586,2.8587,2.8515,2.8517,2.8519,2.852,0,0,0,0,0,0,0,2.8456,2.8424,2.8518,2.849,2.8488,2.8542,2.8542,2.8543,2.8481,2.8478,2.8475,2.8472,2.8496,2.85,2.8503,2.8585,0,0,2.8514,2.8516,0,0,0,0,0,0,0,0,2.8421,2.8424,2.8518,2.8518,2.8519,2.8542,2.8542,2.8543,2.848,2.8478,2.8475,2.8473,2.8497,2.85,2.8503,0,0,0,0,0,0,0,0,0,0,0,0,0,0,0,2.8518,2.8518,0,2.8542,2.8542,2.8543,2.848,2.8478,2.8476,2.8474,2.8498,2.85,2.8503,0,0,0,0,0,0,0,0,0,0,0,0,0,0,0,0,0,0,0,0,0,0,0,0,0,0,0,0,0,0,0,0,0,0,0,0,0,0,0,0,0,0,0,0,0,0,0,0,0,0,0,0,0,0,0,0,0,0,0,0,0,0,0,0,0,0,0,0,0]}],[{"header":{"parameterUnit":"kt","parameterCategory":2,"dx":1,"dy":1,"la1":30.253999710083008,"la2":30.299108505249023,"lo1":-89.0895004272461,"lo2":-89.04439544677734,"nx":28,"ny":28,"refTime":"2022-10-12T21:00:00:Z","depth":0,"parameterNumber":2,"parameterNumberName":"V-component_of_WINDS"},"data":[-1.7151,-1.7129,-1.715,-1.7133,-1.7148,-1.714,-1.7144,-1.7149,-1.7159,-1.7149,-1.7147,-1.7163,-1.7179,-1.718,-1.7177,-1.7184,-1.7182,-1.716,-1.7172,-1.7255,-1.7268,-1.728,-1.7289,-1.7158,-1.7158,-1.7084,-1.7083,-1.7083,-1.7211,-1.7227,-1.7224,-1.7236,-1.7233,-1.7267,-1.7278,-1.7273,-1.7264,-1.7275,-1.7274,-1.7266,-1.7262,-1.7285,-1.7284,-1.7272,-1.7288,-1.7271,-1.7273,-1.7275,-1.7364,-1.7373,-1.7258,-1.7258,-1.7258,-1.7258,-1.7258,-1.7258,-1.7327,-1.7312,-1.7332,-1.7329,-1.734,-1.7347,-1.7336,-1.7358,-1.7354,-1.7357,-1.738,-1.7369,-1.7383,-1.739,-1.7397,-1.7388,-1.741,-1.7397,-1.7394,-1.7391,-1.7385,-1.7493,-1.7388,-1.7388,-1.7389,-1.7389,-1.7389,0,-1.7419,-1.7437,-1.7436,-1.7441,-1.744,-1.7445,-1.7452,-1.7446,-1.749,-1.7484,-1.7478,-1.7477,-1.7474,-1.7469,-1.7472,-1.7482,-1.7516,-1.752,-1.7512,-1.7502,-1.7493,-1.75,-1.7646,-1.7524,-1.7525,-1.7526,-1.7526,-1.7527,-1.7538,-1.7518,-1.7548,-1.7545,-1.7555,-1.7547,-1.7546,-1.7587,-1.7585,-1.7599,-1.7582,-1.7578,-1.7577,-1.7561,-1.7584,-1.7581,-1.7598,-1.755,-1.7598,-1.7589,-1.76,-1.7601,-1.76,-1.754,-1.7538,-1.7537,-1.7536,0,-1.7604,-1.7639,-1.7614,-1.7646,-1.7653,-1.7629,-1.7656,-1.7641,-1.7664,-1.7647,-1.7645,-1.768,-1.7671,-1.7703,-1.7699,-1.7716,-1.7675,-1.769,-1.7671,-1.7677,-1.7638,-1.7642,-1.7503,-1.7488,-1.7621,-1.762,-1.7619,0,-1.7721,-1.7692,-1.7746,-1.773,-1.7699,-1.7743,-1.771,-1.7727,-1.7741,-1.7728,-1.7773,-1.7759,-1.7802,-1.7793,-1.7817,-1.779,-1.7788,-1.78,-1.7807,-1.7797,-1.7796,-1.7797,-1.7804,-1.7822,-1.7822,-1.7823,-1.7824,0,-1.7822,-1.7816,-1.779,-1.7795,-1.7825,-1.7811,-1.7823,-1.7839,-1.7837,-1.7839,-1.7839,-1.7838,-1.7837,-1.7835,-1.7867,-1.7899,-1.7833,-1.7883,-1.7845,-1.7845,-1.783,-1.7831,-1.7699,-1.7824,-1.7825,-1.7825,-1.7825,0,-1.7922,-1.7927,-1.7883,-1.7911,-1.7907,-1.7889,-1.7893,-1.7885,-1.7898,-1.7913,-1.7915,-1.7949,-1.7927,-1.7975,-1.7945,-1.7977,-1.7974,-1.7983,-1.7981,-1.7982,-1.8035,-1.7959,-1.7828,-1.7817,-1.7981,-1.7982,-1.7984,0,-1.8029,-1.7995,-1.8033,-1.7989,-1.7979,-1.8033,-1.8012,-1.8023,-1.8042,-1.8034,-1.8055,-1.8044,-1.8087,-1.8088,-1.8068,-1.8089,-1.8046,-1.8095,-1.8082,-1.8081,-1.808,-1.7959,-1.7933,-1.7853,-1.8001,-1.7999,-1.7998,0,-1.8117,-1.8157,-1.8146,-1.8154,-1.8177,-1.8167,-1.8143,-1.8144,-1.8137,-1.8143,-1.8125,-1.8109,-1.8142,-1.8142,-1.817,-1.8147,-1.8076,-1.8185,-1.8186,-1.8166,-1.8011,-1.7987,-1.7973,-1.8099,-1.8097,-1.8095,-1.8011,0,-1.8265,-1.8252,-1.8225,-1.8239,-1.8237,-1.8211,-1.8249,-1.8241,-1.827,-1.8291,-1.8263,-1.8279,-1.8277,-1.8269,-1.8295,-1.8234,-1.825,-1.8284,-1.8334,-1.8254,-1.8227,-1.8216,-1.8371,-1.8373,-1.8374,-1.8375,0,0,-1.836,-1.8343,-1.8386,-1.8366,-1.8367,-1.8424,-1.8394,-1.84,-1.8412,-1.8411,-1.844,-1.8421,-1.8431,-1.8393,-1.8371,-1.8369,-1.8362,-1.8388,-1.8291,-1.8282,-1.8273,-1.8244,-1.8232,-1.8378,-1.8378,-1.8379,-1.8379,0,-1.8423,-1.8437,-1.8407,-1.8417,-1.8434,-1.8459,-1.8451,-1.8477,-1.8489,-1.8462,-1.8508,-1.8495,-1.8478,-1.8485,-1.8485,-1.8393,-1.8429,-1.8389,-1.8329,-1.8304,-1.8293,-1.8283,-1.8252,-1.824,-1.8383,-1.8382,-1.8382,0,-1.8518,-1.8539,-1.8528,-1.8534,-1.8545,-1.8531,-1.8594,-1.8576,-1.8566,-1.8627,-1.8599,-1.8613,-1.8624,-1.8582,-1.8564,-1.8589,-1.8488,-1.8525,-1.8517,-1.8516,-1.8494,-1.848,-1.8468,-1.863,-1.863,-1.8631,0,0,-1.8567,-1.8555,-1.8591,-1.8551,-1.8554,-1.8592,-1.8587,-1.8616,-1.8627,-1.8631,-1.8649,-1.8656,-1.8647,-1.864,-1.8633,-1.8581,-1.8587,-1.8554,-1.8543,-1.8533,-1.8527,-1.8502,-1.8488,-1.8634,-1.8634,-1.8634,0,0,-1.859,-1.863,-1.8658,-1.8617,-1.8627,-1.8658,-1.8631,-1.8665,-1.8663,-1.867,-1.8715,-1.8719,-1.868,-1.8691,-1.8724,-1.8651,-1.87,-1.8693,-1.8646,-1.8632,-1.8621,-1.862,-1.8789,0,0,0,0,0,-1.8675,-1.8626,-1.8651,-1.865,-1.8656,-1.8644,-1.8645,-1.8683,-1.8718,-1.8696,-1.8717,-1.8755,-1.8718,-1.8748,-1.8745,-1.8709,-1.8669,-1.8663,-1.8657,-1.8585,-1.857,-1.8557,0,0,0,0,0,0,-1.8675,-1.8674,-1.8652,-1.868,-1.8682,-1.8646,-1.8714,-1.8723,-1.8721,-1.8729,-1.8749,-1.8755,-1.8785,-1.8752,-1.8749,-1.8714,-1.8791,-1.8667,-1.8661,-1.8657,-1.858,-1.8567,-1.8556,0,0,0,0,0,-1.8675,-1.8674,-1.8676,-1.8681,-1.8683,-1.8722,-1.8716,-1.8724,-1.8723,-1.8755,-1.8763,-1.8752,-1.8783,-1.8783,-1.8751,-1.8714,-1.8793,-1.8792,-1.8663,-1.8659,-1.8655,-1.8574,0,0,0,0,0,0,-1.8675,-1.8681,-1.8677,-1.8679,-1.8704,-1.8724,-1.8729,-1.8725,-1.875,-1.8757,-1.876,-1.8766,-1.8781,-1.8782,-1.8781,-1.8713,-1.8795,-1.8794,-1.8793,-1.866,-1.8657,-1.8654,0,0,0,0,0,0,-1.8682,-1.8682,-1.8678,-1.8704,-1.8709,-1.8727,-1.8731,-1.8708,-1.875,-1.8754,-1.876,-1.8763,-1.8781,-1.878,-1.878,-1.8742,-1.8797,-1.8796,-1.8795,-1.8794,-1.8657,-1.8655,0,0,0,0,0,0,-1.8682,-1.8683,-1.8703,-1.8707,-1.8712,-1.8735,-1.8707,-1.8711,-1.8775,-1.8752,-1.8781,-1.8784,-1.8778,-1.8779,-1.8779,-1.8741,-1.8742,-1.8797,-1.8796,-1.8795,-1.8795,0,0,0,0,0,0,0,-1.8683,-1.8673,-1.8666,-1.871,-1.8715,-1.8695,-1.8696,-1.8696,-1.8775,-1.8778,-1.878,-1.8783,-1.8805,-1.8803,-1.8802,-1.874,0,0,-1.8797,-1.8796,0,0,0,0,0,0,0,0,-1.8673,-1.8673,-1.8666,-1.8667,-1.8667,-1.8695,-1.8696,-1.8696,-1.8776,-1.8778,-1.878,-1.8782,-1.8804,-1.8803,-1.8802,0,0,0,0,0,0,0,0,0,0,0,0,0,0,0,-1.8666,-1.8667,0,-1.8695,-1.8696,-1.8696,-1.8776,-1.8778,-1.8779,-1.8781,-1.8804,-1.8803,-1.8802,0,0,0,0,0,0,0,0,0,0,0,0,0,0,0,0,0,0,0,0,0,0,0,0,0,0,0,0,0,0,0,0,0,0,0,0,0,0,0,0,0,0,0,0,0,0,0,0,0,0,0,0,0,0,0,0,0,0,0,0,0,0,0,0,0,0,0,0,0]}]]]